Zurück zum Katalog

STARLINK-37599

AktivKommunikationVLEO
NORAD 69360·PAYLOAD·🇺🇸 United States

Gestartet Jun 4, 2026 von Cape Canaveral Space Force Station

Loading…

Nächste Überflüge (nächste 24 Stunden)

TLE

AktuellSource: CelesTrak SupGP

Epoche: Sep 15, 2026, 02:59 UTC

1 69360C 26123H   26258.12479167 -.00019088  00000+0 -56401-3 0  2582
2 69360  53.1578 166.7913 0001315  82.1058 349.0978 15.34397709    11

Verfolge STARLINK-37599 in Echtzeit mit AllMySat

Download on the App Store